Location: Downe
(51.3167°N, 0.0500°E)
Time: 13:45:48
(UTC+00:00)

CZ-2C R/B - Pass Details

Date: 17 November 2019
Orbit: 641 x 704 km, 98.4° (Epoch: 09 December)

Event Time Altitude Azimuth Distance (km) Brightness Sun altitude
Rises 06:00:04 0° 150° (SSE) 2,973 7.8 -12.3°
Reaches altitude 10° 06:02:17 10° 146° (SE) 2,075 7.0 -12.0°
Maximum altitude 06:06:41 55° 69° (ENE) 812 4.5 -11.3°
Drops below altitude 10° 06:11:13 10° 353° (N) 2,129 6.1 -10.6°
Sets 06:13:31 0° 349° (N) 3,059 6.8 -10.3°
